Tracking 17145 objects as of 30-May-2015
HD Live streaming from Space Station

SL-3 R/B

Track SL-3 R/B now!
10-day predictions
SL-3 R/B is classified as:


NORAD ID: 11849
Int'l Code: 1980-051B
Perigee: 386.3 km
Apogee: 396.3 km
Inclination: 97.7 °
Period: 92.2 minutes
Semi major axis: 6762 km
RCS: 5.692 m2 (large)
Launch date: June 18, 1980
Source: Commonwealth of Independent States (former USSR) (CIS)

Note: This is a ROCKET BODY
Your satellite tracking list
Your tracking list is empty





NASA's NSSDC Master Catalog

Two Line Element Set (TLE):
1 11849U 80051B   15150.16647967  .00020414  00000-0  24220-3 0  9999
2 11849 097.6866 063.6237 0007379 102.3312 257.8771 15.61210358920912

Source of the keplerian elements: AFSPC

N2YO: 283